Zurück zum Katalog

CZ-4C DEB

AktivSSO
NORAD 39213·DEBRIS·🇨🇳 China

Gestartet Jul 19, 2013 von Taiyuan Satellite Launch Center

Loading…

Nächste Überflüge (nächste 24 Stunden)

TLE

AktuellSource: Space-Track

Epoche: Sep 13, 2026, 23:54 UTC

1 39213U 13037F   26256.99607173  .00000486  00000-0  78288-4 0  9990
2 39213  98.0374 259.9889 0011515 146.2752 213.9192 14.75887360706303

Verfolge CZ-4C DEB in Echtzeit mit AllMySat

Download on the App Store